When you browse on this site, cookies collect data to enhance your experience and personalize the content and advertising you see.
Visit our Privacy Policy to learn more. By continuing to use the site, you agree to this use of cookies and data.
  • In United Kingdom
  • List of Countries
  • For 7 days
  • Water Temperature
  • Weather Map
  • Weather Widgets
  • user-avatar
    Login

    Hourly Weather Banja Luka

    Today, 18 January, Saturday

    Time Temperature Precipitation Wind Pressure Humidity
    00:00 +1°C° 0 mm 0 mps 719 mmHg 71%
    01:00 +1°C° 0 mm 0 mps 719 mmHg 70%
    02:00 +1°C° 0 mm 0 mps 718 mmHg 69%
    03:00 +1°C° 0 mm 0 mps 718 mmHg 68%
    04:00 +2°C° 0 mm 1 mps 718 mmHg 67%
    05:00 0°C° 0 mm 0 mps 718 mmHg 68%
    06:00 0°C° 0 mm 0 mps 718 mmHg 69%
    07:00 0°C° 0 mm 0 mps 718 mmHg 69%
    08:00 +2°C° 0 mm 0 mps 718 mmHg 65%
    09:00 +3°C° 0 mm 0 mps 718 mmHg 60%
    10:00 +5°C° 0 mm 0 mps 719 mmHg 55%
    11:00 +5°C° 0 mm 0 mps 719 mmHg 55%
    12:00 +7°C° 0 mm 1 mps 718 mmHg 56%
    13:00 +7°C° 0 mm 1 mps 718 mmHg 56%
    14:00 +6°C° 0 mm 1 mps 718 mmHg 64%
    15:00 +5°C° 0 mm 1 mps 718 mmHg 73%
    16:00 +4°C° 0 mm 1 mps 717 mmHg 81%
    17:00 +3°C° 0 mm 1 mps 717 mmHg 85%
    18:00 +2°C° 0 mm 1 mps 718 mmHg 90%
    19:00 +1°C° 0 mm 1 mps 718 mmHg 94%
    20:00 +1°C° 0 mm 1 mps 718 mmHg 95%
    21:00 +2°C° 0 mm 1 mps 718 mmHg 95%
    22:00 +2°C° 0 mm 1 mps 718 mmHg 96%
    23:00 +2°C° 0.3 mm 1 mps 718 mmHg 96%

    Tomorrow, 19 January, Sunday

    Time Temperature Precipitation Wind Pressure Humidity
    00:00 +1°C° 0.3 mm 1 mps 718 mmHg 96%
    01:00 +1°C° 0.3 mm 1 mps 718 mmHg 96%
    02:00 +1°C° 0.5 mm 1 mps 718 mmHg 96%
    03:00 +1°C° 0.5 mm 1 mps 718 mmHg 96%
    04:00 +1°C° 0.5 mm 1 mps 718 mmHg 96%
    05:00 +1°C° 0.6 mm 1 mps 718 mmHg 96%
    06:00 -1°C° 0.6 mm 2 mps 718 mmHg 96%
    07:00 -1°C° 0.6 mm 2 mps 719 mmHg 96%
    08:00 -1°C° 0.3 mm 2 mps 719 mmHg 95%
    09:00 -1°C° 0.3 mm 2 mps 720 mmHg 94%
    10:00 +1°C° 0.3 mm 2 mps 720 mmHg 93%
    11:00 +1°C° 0.4 mm 2 mps 720 mmHg 93%
    12:00 +1°C° 0.4 mm 2 mps 720 mmHg 93%
    13:00 +1°C° 0.4 mm 2 mps 721 mmHg 93%
    14:00 +1°C° 0.2 mm 2 mps 721 mmHg 94%
    15:00 +2°C° 0.2 mm 1 mps 721 mmHg 95%
    16:00 +2°C° 0.2 mm 1 mps 722 mmHg 96%
    17:00 +1°C° 0.3 mm 1 mps 722 mmHg 96%
    18:00 +1°C° 0.3 mm 1 mps 723 mmHg 97%
    19:00 +1°C° 0.3 mm 1 mps 723 mmHg 98%
    20:00 +1°C° 0.2 mm 1 mps 724 mmHg 98%
    21:00 0°C° 0.2 mm 1 mps 724 mmHg 98%
    22:00 0°C° 0.2 mm 1 mps 725 mmHg 98%
    23:00 0°C° 0.1 mm 1 mps 725 mmHg 98%

    Day after tomorrow, 20 January, Monday

    Time Temperature Precipitation Wind Pressure Humidity
    00:00 0°C° 0.1 mm 1 mps 726 mmHg 98%
    01:00 0°C° 0.1 mm 1 mps 726 mmHg 98%
    02:00 0°C° 0.2 mm 1 mps 726 mmHg 97%
    03:00 -1°C° 0.2 mm 1 mps 727 mmHg 97%
    04:00 -1°C° 0.2 mm 1 mps 727 mmHg 97%
    05:00 -1°C° 0 mm 1 mps 728 mmHg 97%
    06:00 -1°C° 0 mm 1 mps 728 mmHg 97%
    07:00 -2°C° 0 mm 1 mps 729 mmHg 97%
    08:00 -1°C° 0 mm 1 mps 729 mmHg 94%
    09:00 0°C° 0 mm 1 mps 730 mmHg 91%
    10:00 +1°C° 0 mm 1 mps 730 mmHg 88%
    11:00 +1°C° 0 mm 1 mps 731 mmHg 86%
    12:00 +2°C° 0 mm 1 mps 731 mmHg 84%
    13:00 +2°C° 0 mm 1 mps 731 mmHg 83%
    14:00 +2°C° 0 mm 1 mps 731 mmHg 85%
    15:00 +2°C° 0 mm 1 mps 732 mmHg 87%
    16:00 +1°C° 0 mm 1 mps 732 mmHg 90%
    17:00 +1°C° 0 mm 1 mps 732 mmHg 91%
    18:00 +1°C° 0 mm 1 mps 732 mmHg 93%
    19:00 0°C° 0 mm 1 mps 733 mmHg 95%
    20:00 -1°C° 0 mm 0 mps 733 mmHg 95%
    21:00 -2°C° 0 mm 0 mps 733 mmHg 95%
    22:00 -2°C° 0 mm 0 mps 733 mmHg 94%
    23:00 -3°C° 0 mm 0 mps 733 mmHg 94%

    21 January, Tuesday

    Time Temperature Precipitation Wind Pressure Humidity
    00:00 -3°C° 0 mm 0 mps 733 mmHg 94%
    01:00 -3°C° 0 mm 0 mps 733 mmHg 94%
    02:00 -4°C° 0 mm 0 mps 733 mmHg 94%
    03:00 -4°C° 0 mm 0 mps 733 mmHg 94%
    04:00 -4°C° 0 mm 0 mps 732 mmHg 93%
    05:00 -4°C° 0 mm 0 mps 732 mmHg 93%
    06:00 -4°C° 0 mm 0 mps 732 mmHg 92%
    07:00 -3°C° 0 mm 1 mps 732 mmHg 91%
    08:00 -2°C° 0 mm 0 mps 732 mmHg 85%
    09:00 -1°C° 0 mm 0 mps 732 mmHg 79%
    10:00 +1°C° 0 mm 0 mps 733 mmHg 73%
    11:00 +2°C° 0 mm 0 mps 732 mmHg 71%
    12:00 +3°C° 0 mm 0 mps 732 mmHg 70%
    13:00 +5°C° 0 mm 0 mps 731 mmHg 68%
    14:00 +4°C° 0 mm 0 mps 731 mmHg 73%
    15:00 +3°C° 0 mm 0 mps 730 mmHg 78%
    16:00 +2°C° 0 mm 0 mps 730 mmHg 83%
    17:00 +1°C° 0 mm 0 mps 730 mmHg 82%
    18:00 +1°C° 0 mm 1 mps 729 mmHg 81%
    19:00 0°C° 0 mm 1 mps 729 mmHg 81%
    20:00 0°C° 0 mm 1 mps 729 mmHg 77%
    21:00 0°C° 0 mm 1 mps 729 mmHg 73%
    22:00 0°C° 0 mm 1 mps 728 mmHg 69%
    23:00 +1°C° 0 mm 1 mps 728 mmHg 66%

    22 January, Wednesday

    Time Temperature Precipitation Wind Pressure Humidity
    00:00 +1°C° 0 mm 1 mps 728 mmHg 63%
    01:00 +1°C° 0 mm 1 mps 727 mmHg 60%
    02:00 +1°C° 0 mm 1 mps 727 mmHg 58%
    03:00 +1°C° 0 mm 1 mps 726 mmHg 55%
    04:00 +1°C° 0 mm 1 mps 726 mmHg 53%
    05:00 +1°C° 0 mm 1 mps 726 mmHg 52%
    06:00 +1°C° 0 mm 1 mps 725 mmHg 50%
    07:00 +1°C° 0 mm 1 mps 725 mmHg 49%
    08:00 +3°C° 0 mm 1 mps 725 mmHg 50%
    09:00 +5°C° 0 mm 1 mps 726 mmHg 51%
    10:00 +6°C° 0 mm 0 mps 726 mmHg 53%
    11:00 +7°C° 0 mm 0 mps 726 mmHg 54%
    12:00 +8°C° 0 mm 0 mps 725 mmHg 56%
    13:00 +8°C° 0 mm 0 mps 725 mmHg 58%
    14:00 +7°C° 0 mm 0 mps 725 mmHg 63%
    15:00 +5°C° 0 mm 0 mps 724 mmHg 68%
    16:00 +4°C° 0 mm 0 mps 724 mmHg 72%
    17:00 +3°C° 0 mm 0 mps 724 mmHg 72%
    18:00 +2°C° 0 mm 0 mps 723 mmHg 71%
    19:00 +1°C° 0 mm 0 mps 723 mmHg 70%
    20:00 +1°C° 0 mm 0 mps 723 mmHg 69%
    21:00 +1°C° 0 mm 0 mps 723 mmHg 68%
    22:00 0°C° 0 mm 0 mps 723 mmHg 67%
    23:00 0°C° 0 mm 0 mps 723 mmHg 69%

    23 January, Thursday

    Time Temperature Precipitation Wind Pressure Humidity
    00:00 0°C° 0 mm 0 mps 723 mmHg 70%
    01:00 0°C° 0 mm 0 mps 723 mmHg 71%
    02:00 0°C° 0 mm 0 mps 723 mmHg 72%
    03:00 0°C° 0 mm 0 mps 722 mmHg 74%
    04:00 -1°C° 0 mm 0 mps 722 mmHg 75%
    05:00 -1°C° 0 mm 0 mps 722 mmHg 74%
    06:00 0°C° 0 mm 0 mps 722 mmHg 72%
    07:00 0°C° 0 mm 0 mps 722 mmHg 71%
    08:00 +1°C° 0 mm 0 mps 722 mmHg 69%
    09:00 +3°C° 0 mm 0 mps 722 mmHg 67%
    10:00 +4°C° 0 mm 0 mps 723 mmHg 66%
    11:00 +5°C° 0 mm 0 mps 723 mmHg 65%
    12:00 +6°C° 0 mm 0 mps 722 mmHg 65%
    13:00 +7°C° 0 mm 0 mps 722 mmHg 64%
    14:00 +6°C° 0 mm 0 mps 722 mmHg 70%
    15:00 +5°C° 0 mm 0 mps 721 mmHg 76%
    16:00 +3°C° 0 mm 0 mps 721 mmHg 82%
    17:00 +3°C° 0 mm 0 mps 721 mmHg 81%
    18:00 +2°C° 0 mm 0 mps 721 mmHg 81%
    19:00 +1°C° 0 mm 0 mps 721 mmHg 81%
    20:00 +1°C° 0 mm 0 mps 721 mmHg 80%
    21:00 0°C° 0 mm 0 mps 721 mmHg 80%
    22:00 0°C° 0 mm 0 mps 721 mmHg 79%
    23:00 0°C° 0 mm 0 mps 721 mmHg 78%
    Show more